Weather History for Marion, VA

Change the Weather History Date:

Thursday, August 15, 2013

  Actual Average (KGEV) Record (KGEV)
Temperature  
Mean Temperature 60 °F -  
Max Temperature 72 °F 79 °F 88 °F (1988)
Min Temperature 50 °F 56 °F 47 °F (1967)
Degree Days  
Heating Degree Days 4    
Growing Degree Days 10 (Base 50)    
Moisture  
Dew Point 55 °F    
Average Humidity 83    
Maximum Humidity 100    
Minimum Humidity 58    
Precipitation  
Precipitation 0.00 in - - ()
Sea Level Pressure  
Sea Level Pressure 30.21 in    
Wind  
Wind Speed 2 mph (East)    
Max Wind Speed 9 mph    
Max Gust Speed -    
Visibility 10 miles    
Events      
Averages and records for this station are not official NWS values.
T = Trace of Precipitation, MM = Missing Value Source: NWS Daily Summary

Daily Weather History Graph

Daily Weather History Graph

Search for Another Location

Airport:

Trip Planner

Search our weather history database for the weather conditions in past years. The results will help you decide how hot, cold, wet, or windy it might be!

Date:

Astronomy

Aug. 15, 2013 Rise Set
Actual Time 6:42 AM EDT 8:16 PM EDT
Civil Twilight 6:15 AM EDT 8:43 PM EDT
Nautical Twilight 5:41 AM EDT 9:16 PM EDT
Astronomical Twilight 5:06 AM EDT 9:51 PM EDT
Moon 3:29 PM EDT (8/15) 12:52 AM EDT (8/15)
Length of Visible Light 14h 28m
Length of Day
13h 33m
Waxing Gibbous, 64% of the Moon is Illuminated
Aug 15
Waxing Gibbous
Aug 20
Full
Aug 28
Last Quarter
Sep 5
New
Sep 12
First Quarter

Hourly Weather History & Observations

Time (EDT) Temp. Dew Point Humidity Pressure Visibility Wind Dir Wind Speed Gust Speed Precip Events Conditions
12:15 AM 54.3 °F 54.3 °F 100% 30.22 in 10.0 mi Calm Calm - N/A   Clear
12:35 AM 53.6 °F 53.6 °F 100% 30.22 in 10.0 mi Calm Calm - N/A   Clear
12:55 AM 53.8 °F 53.8 °F 100% 30.21 in 10.0 mi Calm Calm - N/A   Clear
1:15 AM 53.1 °F 53.1 °F 100% 30.21 in 5.0 mi Calm Calm - N/A   Clear
1:35 AM 52.7 °F 52.7 °F 100% 30.21 in 4.0 mi Calm Calm - N/A   Clear
1:55 AM 52.2 °F 52.2 °F 100% 30.21 in 3.0 mi Calm Calm - N/A   Scattered Clouds
2:15 AM 52.0 °F 52.0 °F 100% 30.21 in 10.0 mi Calm Calm - N/A   Scattered Clouds
2:35 AM 52.0 °F 52.0 °F 100% 30.21 in 10.0 mi Calm Calm - N/A   Clear
2:55 AM 52.2 °F 52.2 °F 100% 30.20 in 10.0 mi Calm Calm - N/A   Clear
3:15 AM 52.0 °F 52.0 °F 100% 30.20 in 10.0 mi Calm Calm - N/A   Clear
3:35 AM 51.3 °F 51.3 °F 100% 30.20 in 10.0 mi Calm Calm - N/A   Clear
3:55 AM 51.8 °F 51.8 °F 100% 30.20 in 10.0 mi East 3.5 mph - N/A   Clear
4:15 AM 51.4 °F 51.4 °F 100% 30.20 in 10.0 mi Calm Calm - N/A   Clear
4:35 AM 51.4 °F 51.4 °F 100% 30.20 in 10.0 mi Calm Calm - N/A   Clear
4:55 AM 51.1 °F 51.1 °F 100% 30.20 in 10.0 mi Calm Calm - N/A   Clear
5:15 AM 50.9 °F 50.9 °F 100% 30.21 in 10.0 mi Calm Calm - N/A   Clear
5:35 AM 50.7 °F 50.7 °F 100% 30.21 in 10.0 mi Calm Calm - N/A   Clear
5:55 AM 50.5 °F 50.5 °F 100% 30.21 in 10.0 mi East 3.5 mph - N/A   Clear
6:15 AM 50.9 °F 50.9 °F 100% 30.21 in 10.0 mi Calm Calm - N/A   Clear
6:35 AM 50.4 °F 50.4 °F 100% 30.21 in 10.0 mi East 3.5 mph - N/A   Clear
6:55 AM 50.5 °F 50.5 °F 100% 30.22 in 10.0 mi Calm Calm - N/A   Mostly Cloudy
7:15 AM 50.9 °F 50.9 °F 100% 30.23 in 10.0 mi Calm Calm - N/A   Mostly Cloudy
7:35 AM 51.8 °F 51.8 °F 100% 30.23 in 10.0 mi East 3.5 mph - N/A   Overcast
7:55 AM 52.0 °F 52.0 °F 100% 30.23 in 10.0 mi ESE 3.5 mph - N/A   Mostly Cloudy
8:15 AM 53.8 °F 53.2 °F 98% 30.24 in 10.0 mi East 5.8 mph - N/A   Overcast
8:35 AM 54.9 °F 54.0 °F 97% 30.24 in 10.0 mi East 4.6 mph - N/A   Overcast
8:55 AM 56.5 °F 53.2 °F 89% 30.24 in 10.0 mi ENE 6.9 mph - N/A   Mostly Cloudy
9:15 AM 56.7 °F 53.2 °F 88% 30.24 in 10.0 mi East 5.8 mph - N/A   Mostly Cloudy
9:35 AM 59.9 °F 54.5 °F 82% 30.24 in 10.0 mi East 9.2 mph - N/A   Scattered Clouds
9:55 AM 61.0 °F 54.3 °F 79% 30.24 in 10.0 mi ENE 8.1 mph - N/A   Scattered Clouds
10:15 AM 61.0 °F 55.0 °F 81% 30.24 in 10.0 mi NE 6.9 mph - N/A   Scattered Clouds
10:35 AM 61.7 °F 55.2 °F 79% 30.25 in 10.0 mi NE 8.1 mph - N/A   Overcast
10:55 AM 62.2 °F 56.3 °F 81% 30.25 in 10.0 mi NE 9.2 mph - N/A   Overcast
11:15 AM 65.7 °F 57.7 °F 76% 30.24 in 10.0 mi East 6.9 mph - N/A   Overcast
11:35 AM 65.7 °F 56.7 °F 73% 30.24 in 10.0 mi East 8.1 mph - N/A   Overcast
11:55 AM 66.2 °F 56.3 °F 70% 30.24 in 10.0 mi East 6.9 mph - N/A   Overcast
12:15 PM 66.9 °F 57.0 °F 70% 30.23 in 10.0 mi East 5.8 mph - N/A   Overcast
12:35 PM 67.5 °F 56.5 °F 68% 30.23 in 10.0 mi East 6.9 mph - N/A   Overcast
12:55 PM 67.1 °F 56.3 °F 68% 30.22 in 10.0 mi East 5.8 mph - N/A   Overcast
1:15 PM 67.1 °F 56.7 °F 69% 30.22 in 10.0 mi East 5.8 mph - N/A   Overcast
1:35 PM 67.5 °F 57.2 °F 70% 30.22 in 10.0 mi ESE 4.6 mph - N/A   Overcast
1:55 PM 68.2 °F 56.5 °F 66% 30.21 in 10.0 mi ESE 3.5 mph - N/A   Overcast
2:08 PM 69.8 °F 57.2 °F 64% 30.21 in 10.0 mi ESE 4.6 mph - N/A   Overcast
2:15 PM 69.3 °F 57.0 °F 65% 30.21 in 10.0 mi South 4.6 mph - N/A   Overcast
2:28 PM 69.8 °F 57.2 °F 64% 30.21 in 10.0 mi Calm Calm - N/A   Overcast
2:35 PM 69.3 °F 56.7 °F 64% 30.21 in 10.0 mi Calm Calm - N/A   Overcast
2:55 PM 68.5 °F 57.0 °F 67% 30.21 in 10.0 mi ESE 4.6 mph - N/A   Overcast
3:15 PM 69.3 °F 56.5 °F 64% 30.20 in 10.0 mi East 3.5 mph - N/A   Overcast
3:35 PM 70.7 °F 57.0 °F 62% 30.18 in 10.0 mi NNE 3.5 mph - N/A   Mostly Cloudy
3:55 PM 71.8 °F 57.4 °F 60% 30.18 in 10.0 mi ENE 5.8 mph - N/A   Scattered Clouds
4:15 PM 71.4 °F 56.8 °F 60% 30.17 in 10.0 mi ENE 3.5 mph - N/A   Scattered Clouds
4:35 PM 71.4 °F 57.0 °F 60% 30.17 in 10.0 mi East 6.9 mph - N/A   Mostly Cloudy
4:55 PM 71.6 °F 57.0 °F 60% 30.17 in 10.0 mi Calm Calm - N/A   Scattered Clouds
5:15 PM 71.2 °F 56.3 °F 59% 30.16 in 10.0 mi East 6.9 mph - N/A   Scattered Clouds
5:35 PM 71.2 °F 57.0 °F 61% 30.17 in 10.0 mi ESE 6.9 mph - N/A   Scattered Clouds
5:55 PM 70.9 °F 57.4 °F 62% 30.17 in 10.0 mi East 3.5 mph - N/A   Clear
6:15 PM 71.1 °F 55.4 °F 58% 30.17 in 10.0 mi ESE 4.6 mph - N/A   Mostly Cloudy
6:35 PM 69.4 °F 57.2 °F 65% 30.17 in 10.0 mi East 5.8 mph - N/A   Mostly Cloudy
6:55 PM 67.8 °F 57.2 °F 69% 30.17 in 10.0 mi ESE 4.6 mph - N/A   Scattered Clouds
7:15 PM 68.4 °F 57.4 °F 68% 30.17 in 10.0 mi ESE 4.6 mph - N/A   Clear
7:35 PM 67.1 °F 57.6 °F 71% 30.18 in 2.5 mi ESE 4.6 mph - N/A   Haze
7:55 PM 66.4 °F 58.1 °F 75% 30.18 in 10.0 mi Calm Calm - N/A   Clear
8:15 PM 65.3 °F 58.1 °F 77% 30.19 in 10.0 mi Calm Calm - N/A   Clear
8:35 PM 64.4 °F 57.7 °F 79% 30.19 in 10.0 mi Calm Calm - N/A   Clear
8:55 PM 62.6 °F 58.1 °F 85% 30.20 in 10.0 mi ENE 3.5 mph - N/A   Clear
9:15 PM 61.9 °F 57.7 °F 86% 30.21 in 10.0 mi East 3.5 mph - N/A   Clear
9:35 PM 61.7 °F 57.6 °F 86% 30.21 in 10.0 mi Calm Calm - N/A   Clear
9:55 PM 60.6 °F 57.6 °F 90% 30.21 in 10.0 mi NE 4.6 mph - N/A   Clear
10:15 PM 60.1 °F 57.4 °F 91% 30.21 in 10.0 mi ENE 5.8 mph - N/A   Clear
10:35 PM 59.4 °F 57.2 °F 93% 30.22 in 10.0 mi ENE 5.8 mph - N/A   Clear
10:55 PM 59.4 °F 57.2 °F 93% 30.22 in 10.0 mi ENE 3.5 mph - N/A   Clear
11:15 PM 58.8 °F 57.2 °F 94% 30.22 in 10.0 mi Calm Calm - N/A   Clear
11:35 PM 58.3 °F 58.1 °F 99% 30.22 in 10.0 mi ENE 4.6 mph - N/A   Clear
11:55 PM 58.5 °F 58.1 °F 99% 30.23 in 10.0 mi Calm Calm - N/A   Clear